Wetbulb
63.28 61.41 59.58 52.09 44.12 40.20 34.54 37.31 39.22 38.14 37.47 38.75 41.13 40.50 39.38 36.98 39.14 37.42 42.15 46.36 47.77 46.70 48.22 50.63 55.74 56.39 56.69 56.66 57.03 56.96 57.04 57.04 56.94 56.78 56.44 56.67 56.73 56.56 56.33 56.61 56.63 57.35 57.88 58.21 58.39 58.18 57.78 57.28 56.75
60.47 58.76 50.41 44.39 39.06 34.72 36.13 37.76 38.64 40.12 40.21 41.13 41.25 39.72 37.66 35.73 40.66 41.10 42.52 46.94 47.31 47.31 47.92 49.22 56.01 55.49 56.34 56.17 56.35 56.28 56.19 56.04 55.90 55.82 55.80 55.77 55.75 55.62 55.52 54.93 55.23 55.95 56.71 57.13 57.24 56.99 56.38 55.64 55.10
56.03 52.51 45.93 39.93 34.13 34.29 35.48 37.69 37.71 39.11 41.86 41.02 38.44 40.23 39.44 37.54 42.21 42.16 43.71 47.09 47.14 45.69 47.41 51.01 55.62 56.33 55.84 55.51 55.82 55.57 55.06 54.57 54.88 54.52 54.65 54.51 54.63 54.46 53.88 53.49 54.30 54.84 55.47 55.91 56.33 56.03 55.23 54.56 54.04
51.95 48.11 44.40 39.22 33.94 37.26 38.60 38.91 39.51 38.56 39.27 40.43 38.21 35.47 40.22 42.25 42.74 43.94 46.15 46.76 45.25 44.62 47.48 51.33 54.84 55.14 55.18 55.09 54.98 54.95 54.08 53.46 53.81 53.76 53.57 53.23 53.46 53.06 52.82 52.47 53.18 53.59 54.13 55.05 55.30 54.73 53.92 53.30 52.96
47.21 44.21 39.09 35.73 35.60 38.02 38.66 40.30 39.55 37.97 38.49 38.54 38.71 33.79 36.90 42.41 44.57 45.35 45.49 46.14 44.18 43.71 46.07 47.81 54.04 54.22 54.48 53.90 53.78 53.92 53.14 52.72 52.83 53.11 52.62 51.77 51.95 51.65 51.52 51.43 51.77 51.94 52.63 52.34 52.42 52.31 51.98 51.74 51.72
43.85 42.50 37.34 35.09 35.55 39.40 39.90 40.39 41.09 39.62 38.94 38.90 37.46 36.80 36.72 42.70 43.92 44.10 45.10 43.78 44.68 44.94 45.34 46.02 52.90 53.33 52.57 52.16 52.73 52.55 51.92 51.92 51.66 51.96 51.10 50.66 50.29 50.09 50.31 50.07 50.49 50.53 50.17 50.14 50.29 49.75 49.81 49.85 49.89
42.38 38.63 34.50 33.84 34.91 36.59 40.11 41.46 40.65 39.83 38.75 36.87 39.69 34.83 36.60 40.42 43.05 44.32 43.62 43.78 44.33 45.12 44.70 43.34 43.26 48.36 50.87 52.37 51.44 51.35 51.30 51.07 50.94 50.90 49.70 49.20 48.69 48.62 48.78 48.56 49.03 48.98 48.62 48.38 48.07 48.15 48.11 48.34 48.36
41.78 40.29 35.05 34.51 35.65 36.09 39.60 39.69 39.98 40.09 37.98 42.02 40.65 34.78 34.30 40.87 43.59 43.09 43.01 42.86 43.83 44.54 43.73 43.23 42.10 42.47 41.01 41.40 50.98 50.55 50.54 50.97 50.73 49.51 48.67 47.69 46.93 47.41 46.73 46.80 47.43 47.60 47.26 47.20 46.81 46.98 46.92 47.03 46.54
42.60 38.13 34.38 36.93 36.93 37.35 38.91 37.63 40.49 40.69 39.54 39.93 39.42 39.72 41.59 43.15 43.12 41.34 40.41 41.12 42.39 44.40 42.81 42.54 41.32 41.47 41.53 41.87 46.07 46.02 48.71 49.90 47.46 45.39 47.03 42.00 38.66 39.79 39.18 44.33 45.84 45.74 45.42 45.16 45.17 45.42 45.49 44.78 43.35
41.28 36.75 37.01 39.74 39.67 37.37 38.38 38.70 38.75 37.65 36.56 36.36 38.03 40.97 42.81 43.31 41.64 40.58 39.99 40.08 41.07 41.50 41.96 41.78 40.29 39.90 39.99 44.22 39.49 39.66 41.16 40.17 39.61 39.02 38.19 37.96 36.86 39.33 40.52 41.23 43.24 42.75 43.05 42.21 42.81 43.18 43.25 41.11 37.90
39.60 36.88 37.90 38.75 38.68 39.19 35.99 34.72 36.08 36.56 34.13 37.45 38.02 39.20 41.11 41.12 40.19 39.95 39.94 39.96 41.18 41.66 42.91 41.85 39.57 38.90 38.63 39.18 37.73 37.97 38.10 38.54 38.43 38.37 36.99 36.15 36.58 35.77 35.81 35.43 35.66 35.36 38.69 34.81 36.15 36.37 37.02 36.71 36.90
37.40 38.36 39.22 37.10 37.59 36.96 36.09 37.02 36.39 34.79 37.85 40.51 40.06 40.96 40.02 39.47 39.20 39.50 39.22 39.71 40.41 41.53 41.74 41.07 38.81 38.32 37.91 37.34 36.91 36.37 37.94 37.37 37.29 37.47 37.04 34.78 34.21 33.89 33.96 34.02 34.18 34.11 34.08 33.24 33.92 34.63 35.62 35.76 36.49
37.30 36.34 37.44 37.17 38.22 36.32 38.61 35.51 36.45 36.27 38.00 40.42 40.26 40.09 38.99 39.04 38.24 37.96 38.84 39.34 39.53 40.45 41.31 39.33 37.89 37.41 37.48 36.78 35.95 35.61 35.12 35.61 36.75 37.12 37.15 35.86 34.15 33.16 33.19 33.30 33.43 32.64 32.85 32.85 33.24 33.80 34.79 35.27 35.65
36.64 36.32 35.14 36.14 35.46 36.19 36.09 34.09 34.01 36.35 37.61 37.91 38.84 36.71 36.12 37.29 36.72 35.61 37.69 38.42 39.43 41.09 40.56 38.85 37.51 37.15 36.98 36.03 35.17 34.71 34.64 35.17 35.93 35.95 36.20 36.44 35.02 33.60 33.16 32.54 32.79 32.04 32.53 33.15 33.40 34.14 34.58 34.67 34.89
36.99 34.77 34.92 33.69 33.81 33.58 36.69 30.79 31.99 37.47 37.05 36.12 36.18 35.02 35.26 36.48 36.31 38.31 39.26 39.43 39.46 40.17 40.16 38.10 37.27 37.28 36.42 35.60 35.72 34.81 35.26 35.62 34.75 34.98 35.44 35.24 34.79 33.96 33.06 32.19 32.15 32.26 32.89 33.93 34.19 34.29 34.60 34.34 35.61
35.48 34.51 29.99 33.31 35.03 34.33 33.99 30.32 32.82 34.99 35.95 34.56 34.68 34.45 35.52 36.20 37.43 36.78 39.00 39.10 39.16 39.22 38.14 38.81 41.26 36.61 35.99 35.26 35.09 35.05 34.55 34.26 34.17 33.98 34.18 34.50 34.63 34.94 33.14 31.86 31.60 32.53 33.56 33.68 33.55 33.57 33.69 34.51 35.06
32.57 29.18 29.27 31.86 35.27 34.19 31.72 29.49 30.73 32.83 35.36 34.12 33.10 33.18 34.44 34.35 35.29 35.82 38.75 38.96 39.21 38.70 37.78 36.58 36.71 36.06 36.02 35.51 35.00 34.03 33.93 33.63 33.57 33.38 33.04 33.30 34.01 34.88 32.14 31.39 31.64 32.18 32.93 33.01 33.52 33.95 34.25 32.83 34.42
29.81 29.06 27.21 29.46 31.96 31.49 28.51 29.88 30.27 32.04 33.58 33.66 32.05 31.92 32.68 34.52 35.40 37.90 38.69 38.22 37.86 36.87 36.79 36.27 36.58 36.29 36.05 35.22 34.43 33.83 33.07 33.03 33.38 32.64 33.20 33.50 33.33 34.04 32.15 31.22 31.04 32.48 32.05 32.18 33.23 32.90 33.42 33.70 34.26
34.16 31.26 30.34 29.59 33.38 32.68 30.77 28.55 31.07 31.88 29.79 31.15 31.08 31.01 31.59 33.79 35.43 38.23 38.24 37.64 36.34 35.93 36.15 36.06 36.06 35.69 35.58 34.66 33.09 31.76 30.49 31.46 32.36 32.69 33.22 33.04 33.41 33.02 31.31 30.71 31.23 32.08 31.50 31.56 32.66 32.88 32.49 33.38 33.20
35.49 32.98 31.60 32.39 33.56 32.76 28.76 30.74 30.80 31.09 33.72 34.22 32.64 31.12 31.69 32.80 35.27 37.75 37.15 35.90 35.59 35.76 35.37 35.73 35.55 35.17 34.26 33.60 32.38 31.98 31.04 31.35 31.96 32.19 31.85 32.25 32.46 32.01 31.74 30.34 30.56 32.15 32.09 31.14 32.08 32.00 31.94 32.17 32.98
34.85 32.73 32.40 32.85 31.33 32.00 30.89 29.37 28.07 31.54 32.29 33.27 32.98 32.85 32.86 34.75 35.14 36.99 37.23 35.58 34.33 34.29 34.75 35.40 34.91 33.97 33.59 33.01 32.57 32.08 31.51 31.27 30.69 30.04 30.47 31.29 31.76 31.59 30.98 30.48 30.41 31.07 30.43 31.25 30.90 32.29 31.36 30.06 32.41
32.62 37.75 37.10 33.38 30.67 26.30 31.80 22.86 30.03 29.44 30.82 31.93 33.34 32.13 32.37 34.44 36.77 37.39 36.82 35.23 33.86 33.35 34.50 34.71 34.58 33.73 33.89 32.34 30.93 29.46 28.35 28.35 29.07 29.27 29.73 30.21 30.71 30.16 30.80 30.59 30.27 30.40 29.95 30.33 30.89 32.51 31.84 32.04 29.25
35.83 39.24 36.83 34.52 31.04 28.11 28.45 24.51 29.43 29.33 29.02 30.72 32.58 34.45 33.52 34.87 36.45 36.67 36.88 36.03 33.86 33.61 33.50 33.62 33.87 33.39 32.69 31.68 30.66 29.24 28.57 28.87 29.80 29.28 28.51 28.61 29.56 29.47 30.05 30.13 29.58 29.32 29.65 30.78 31.29 31.82 32.95 31.98 30.85
40.64 37.67 36.21 34.06 29.71 21.02 28.47 25.98 26.19 29.48 32.10 31.65 33.38 36.05 34.42 34.52 35.25 37.94 36.72 35.10 33.01 32.12 32.58 32.29 32.75 32.22 32.03 31.41 30.83 29.93 28.90 28.88 28.40 27.87 27.57 28.30 28.92 29.04 28.71 29.39 29.34 29.32 29.63 30.50 31.96 32.42 32.29 31.98 30.33
38.17 32.21 22.92 21.85 19.10 24.65 31.36 27.07 30.39 36.12 36.53 36.11 35.31 35.30 34.79 35.76 36.82 36.16 33.66 33.12 32.82 32.56 32.22 32.51 31.96 31.49 31.45 30.77 30.67 30.29 29.79 29.36 28.63 28.24 27.75 27.73 27.99 28.16 27.14 27.69 28.14 28.95 29.94 30.70 32.08 32.63 32.01 30.24 29.58
37.45 35.40 25.69 13.86 19.03 24.12 32.70 26.54 34.86 39.01 37.91 39.14 39.12 35.36 35.75 36.25 37.07 35.74 33.94 33.69 33.25 33.24 32.94 32.72 31.99 31.56 31.00 30.80 30.54 30.40 30.29 29.44 29.46 29.23 28.59 28.30 28.00 28.02 27.05 27.27 27.43 28.62 29.80 30.42 32.44 31.98 30.59 29.91 29.43
35.43 33.32 38.33 30.60 30.05 23.19 26.84 34.55 39.87 38.24 36.20 35.14 33.85 34.46 34.28 35.45 35.92 34.17 33.53 33.50 32.95 33.07 32.84 32.24 32.02 31.62 31.09 30.64 30.32 30.05 30.21 29.73 28.67 28.75 28.96 28.50 28.69 28.60 26.95 27.00 27.09 27.98 28.61 30.44 31.21 30.70 29.90 30.11 29.81
40.55 41.23 32.56 31.23 22.64 13.05 23.44 30.05 31.07 35.23 34.07 34.11 32.79 32.84 34.12 35.59 34.84 33.91 33.63 33.21 33.05 33.35 33.05 32.54 32.32 31.63 30.99 30.40 30.10 30.18 29.73 30.00 29.35 28.82 27.53 27.55 27.77 27.05 26.23 26.71 27.29 27.87 29.39 30.27 29.77 29.31 30.03 29.49 29.71
35.17 33.18 32.54 31.55 23.75 14.91 15.45 27.80 36.29 38.27 36.59 32.77 32.50 33.33 34.54 35.02 34.56 34.02 33.88 33.58 33.52 33.02 32.45 32.19 31.81 31.22 30.47 30.38 30.21 29.71 29.17 29.61 28.88 28.29 27.72 27.31 27.04 26.36 26.05 26.66 27.44 28.14 29.20 28.88 28.55 28.32 29.12 28.88 29.39
38.52 34.79 33.54 30.64 24.50 24.77 23.44 24.86 36.50 38.50 38.56 34.94 33.38 33.88 34.82 35.68 34.99 34.54 33.95 33.54 32.93 32.66 32.50 31.87 31.15 30.70 30.80 30.74 30.21 29.51 29.19 28.77 28.24 28.16 27.98 27.97 26.42 26.36 26.21 26.59 27.64 28.42 28.78 28.83 28.52 27.58 28.51 28.68 28.54
MSLP
1010.06 1010.42 1010.58 1010.81 1012.10 1013.27 1014.27 1014.75 1015.01 1015.79 1016.43 1016.83 1017.27 1017.91 1018.74 1019.83 1020.60 1022.50 1022.77 1022.85 1022.85 1022.90 1022.62 1022.40 1022.11 1021.92 1021.79 1021.79 1021.67 1021.55 1021.44 1021.37 1021.30 1021.19 1021.04 1020.70 1020.40 1020.27 1020.09 1019.73 1019.34 1018.80 1018.32 1018.06 1017.86 1017.74 1017.66 1017.56 1017.35
1010.18 1010.67 1010.88 1011.43 1012.86 1014.25 1014.50 1014.72 1015.25 1015.91 1016.81 1017.42 1017.83 1018.60 1019.38 1020.60 1021.24 1022.42 1022.90 1022.96 1022.94 1022.87 1022.64 1022.31 1022.00 1021.95 1021.82 1021.79 1021.70 1021.69 1021.66 1021.60 1021.53 1021.47 1021.21 1020.94 1020.72 1020.59 1020.38 1020.16 1019.73 1019.16 1018.64 1018.33 1018.07 1017.89 1017.84 1017.80 1017.68
1010.16 1010.33 1011.42 1012.49 1014.00 1014.67 1014.91 1015.12 1015.76 1016.57 1017.10 1017.59 1018.56 1019.19 1020.05 1021.24 1021.74 1022.18 1022.35 1022.78 1022.95 1022.80 1022.53 1022.25 1022.07 1021.99 1021.90 1021.83 1021.76 1021.77 1021.80 1021.78 1021.72 1021.65 1021.45 1021.25 1021.05 1020.82 1020.70 1020.40 1019.96 1019.48 1019.06 1018.70 1018.26 1018.08 1017.98 1017.93 1017.79
1009.93 1010.83 1012.37 1012.92 1014.24 1014.45 1014.75 1015.17 1015.83 1016.86 1017.62 1017.95 1018.86 1020.13 1020.71 1021.33 1021.45 1021.92 1022.52 1022.78 1022.94 1022.85 1022.63 1022.30 1022.22 1022.11 1022.04 1022.04 1021.92 1021.95 1021.98 1021.88 1021.80 1021.74 1021.72 1021.58 1021.22 1020.98 1020.74 1020.51 1020.13 1019.76 1019.27 1018.87 1018.54 1018.42 1018.37 1018.27 1017.96
1010.02 1011.26 1012.76 1013.71 1014.04 1014.34 1014.75 1015.27 1015.97 1016.94 1017.75 1018.49 1019.00 1020.57 1021.26 1021.51 1021.57 1022.08 1022.60 1022.87 1023.07 1023.12 1022.88 1022.52 1022.37 1022.33 1022.27 1022.27 1022.18 1022.09 1022.17 1021.99 1021.85 1021.82 1021.96 1021.77 1021.44 1021.31 1020.95 1020.70 1020.31 1020.01 1019.66 1019.31 1018.98 1018.80 1018.66 1018.41 1018.14
1010.58 1011.78 1013.25 1013.95 1014.19 1014.45 1014.94 1015.43 1016.12 1016.98 1017.87 1018.65 1019.34 1020.47 1021.72 1021.91 1022.11 1022.61 1022.85 1023.14 1023.11 1023.21 1023.19 1023.00 1022.54 1022.50 1022.52 1022.38 1022.35 1022.24 1022.26 1022.12 1021.98 1022.03 1022.18 1022.07 1021.77 1021.61 1021.27 1020.92 1020.51 1020.24 1020.01 1019.63 1019.26 1019.00 1018.72 1018.46 1018.10
1010.72 1012.29 1013.46 1013.84 1014.27 1014.63 1014.97 1015.42 1016.19 1017.08 1017.98 1018.69 1019.17 1020.74 1022.00 1022.34 1022.46 1022.66 1023.14 1023.38 1023.51 1023.46 1023.45 1023.48 1023.30 1023.01 1022.82 1022.54 1022.56 1022.40 1022.40 1022.37 1022.15 1022.30 1022.41 1022.35 1022.18 1021.97 1021.61 1021.27 1020.84 1020.54 1020.25 1019.76 1019.57 1019.10 1018.79 1018.42 1018.12
1010.85 1012.50 1013.67 1014.13 1014.57 1014.67 1015.02 1015.63 1016.42 1017.00 1017.95 1018.40 1018.87 1020.41 1021.72 1021.64 1022.33 1022.92 1023.20 1023.42 1023.53 1023.60 1023.64 1023.64 1023.56 1023.50 1023.40 1023.19 1022.77 1022.71 1022.75 1022.57 1022.62 1022.59 1022.62 1022.63 1022.61 1022.28 1022.02 1021.56 1021.02 1020.69 1020.32 1019.84 1019.53 1019.23 1018.90 1018.46 1018.22
1010.60 1012.54 1013.91 1013.83 1014.52 1014.67 1015.26 1015.76 1016.71 1017.41 1018.01 1018.43 1018.84 1019.37 1019.70 1020.88 1022.20 1023.00 1023.34 1023.62 1023.63 1023.72 1023.78 1023.81 1023.85 1023.68 1023.59 1023.43 1023.35 1023.40 1023.17 1023.05 1023.14 1023.23 1023.05 1023.26 1023.19 1022.85 1022.46 1021.80 1021.24 1020.86 1020.48 1020.19 1019.70 1019.24 1019.01 1018.66 1018.47
1011.43 1012.80 1013.16 1013.47 1013.96 1014.61 1015.34 1015.78 1016.67 1017.54 1018.42 1018.78 1019.17 1019.66 1020.09 1021.10 1022.19 1022.86 1023.30 1023.59 1023.69 1023.86 1023.97 1023.97 1023.95 1023.89 1023.76 1023.58 1023.72 1023.59 1023.49 1023.57 1023.57 1023.67 1023.63 1023.51 1023.38 1022.98 1022.50 1022.14 1021.58 1021.37 1020.98 1020.73 1020.09 1019.54 1019.20 1019.03 1018.71
1012.01 1012.88 1013.25 1013.66 1013.99 1014.58 1015.52 1016.35 1017.00 1017.63 1018.56 1018.49 1018.96 1019.87 1020.60 1021.46 1022.24 1022.89 1023.25 1023.45 1023.57 1023.82 1023.97 1024.07 1024.09 1024.04 1023.93 1023.88 1023.86 1023.78 1023.84 1023.93 1023.85 1023.76 1023.80 1023.77 1023.48 1023.17 1022.91 1022.47 1022.17 1021.89 1021.35 1021.19 1020.59 1019.95 1019.59 1019.17 1018.65
1012.35 1013.16 1013.56 1014.11 1014.59 1015.18 1015.87 1016.49 1017.29 1017.60 1017.52 1017.71 1018.75 1019.45 1020.49 1021.53 1022.16 1022.58 1023.05 1023.31 1023.54 1023.81 1023.96 1024.05 1024.12 1024.13 1024.16 1024.12 1024.05 1024.02 1023.96 1024.04 1024.06 1024.01 1023.95 1023.83 1023.66 1023.43 1023.11 1022.81 1022.41 1022.08 1021.65 1021.19 1020.59 1020.02 1019.50 1018.98 1018.51
1012.73 1013.61 1014.14 1014.58 1014.88 1015.56 1015.94 1016.72 1017.28 1017.77 1017.82 1018.21 1019.14 1019.90 1020.77 1021.42 1022.03 1022.47 1022.77 1023.01 1023.38 1023.79 1024.02 1024.25 1024.26 1024.32 1024.32 1024.24 1024.28 1024.27 1024.29 1024.23 1024.21 1024.25 1024.11 1023.86 1023.71 1023.67 1023.37 1022.84 1022.43 1022.07 1021.50 1021.06 1020.49 1019.86 1019.14 1018.40 1017.95
1013.51 1013.99 1014.68 1015.04 1015.44 1015.88 1016.42 1017.23 1017.47 1018.30 1018.50 1019.09 1019.69 1020.39 1020.96 1021.39 1021.88 1022.52 1022.79 1022.98 1023.27 1023.66 1024.04 1024.28 1024.39 1024.45 1024.41 1024.40 1024.39 1024.45 1024.44 1024.44 1024.37 1024.36 1024.18 1023.86 1023.71 1023.67 1023.31 1022.86 1022.35 1021.90 1021.25 1020.72 1020.24 1019.48 1018.75 1018.14 1017.59
1013.80 1014.62 1015.01 1015.41 1015.70 1016.14 1016.49 1017.58 1017.77 1018.16 1018.98 1019.65 1020.30 1020.81 1021.22 1021.52 1021.75 1021.76 1021.94 1022.62 1023.05 1023.60 1023.94 1024.14 1024.32 1024.59 1024.55 1024.53 1024.48 1024.56 1024.52 1024.54 1024.59 1024.43 1024.24 1023.96 1023.73 1023.57 1023.31 1022.80 1022.25 1021.73 1021.06 1020.44 1019.73 1019.07 1018.39 1017.76 1016.94
1014.42 1014.95 1015.48 1015.47 1015.81 1016.34 1016.83 1017.26 1017.63 1018.30 1019.08 1020.09 1020.61 1021.18 1021.44 1021.69 1021.56 1021.83 1022.06 1022.64 1023.26 1023.62 1023.96 1024.07 1024.11 1024.70 1024.74 1024.77 1024.72 1024.73 1024.78 1024.77 1024.73 1024.52 1024.31 1024.06 1023.83 1023.50 1023.17 1022.73 1022.21 1021.54 1020.85 1020.10 1019.34 1018.62 1017.89 1017.23 1016.70
1015.17 1015.43 1015.72 1015.64 1015.74 1016.30 1017.06 1017.39 1017.91 1018.67 1019.38 1020.25 1020.74 1021.25 1021.52 1021.87 1022.02 1022.10 1022.40 1022.92 1023.44 1023.77 1024.08 1024.38 1024.77 1024.95 1024.91 1024.93 1024.98 1024.99 1025.01 1024.98 1024.82 1024.64 1024.46 1024.24 1023.84 1023.45 1023.17 1022.77 1022.16 1021.48 1020.55 1019.75 1019.03 1018.35 1017.61 1016.92 1016.19
1015.29 1015.73 1015.72 1015.72 1015.82 1016.39 1017.16 1017.38 1018.22 1018.98 1019.57 1020.10 1020.68 1021.14 1021.58 1021.75 1021.93 1022.12 1022.69 1023.26 1023.69 1024.02 1024.29 1024.65 1025.06 1025.17 1025.14 1025.12 1025.09 1025.18 1025.20 1025.19 1025.06 1024.83 1024.46 1024.25 1023.95 1023.54 1023.21 1022.68 1021.97 1021.13 1020.29 1019.51 1018.84 1018.15 1017.42 1016.68 1015.89
1014.87 1015.27 1015.48 1015.61 1015.52 1016.22 1016.63 1017.32 1018.03 1018.72 1019.65 1020.16 1020.64 1021.05 1021.42 1021.58 1021.87 1022.22 1022.98 1023.61 1023.99 1024.37 1024.61 1024.99 1025.24 1025.31 1025.28 1025.36 1025.42 1025.42 1025.69 1025.53 1025.13 1024.89 1024.67 1024.39 1024.03 1023.69 1023.18 1022.51 1021.86 1020.88 1019.98 1019.39 1018.74 1018.07 1017.30 1016.47 1015.90
1014.60 1015.06 1015.26 1015.31 1015.56 1016.39 1016.72 1017.01 1017.53 1018.26 1018.23 1018.70 1019.72 1020.59 1021.06 1021.60 1021.91 1022.54 1023.34 1023.89 1024.23 1024.70 1025.09 1025.33 1025.44 1025.57 1025.70 1025.74 1025.63 1025.63 1025.73 1025.57 1025.26 1025.23 1024.94 1024.62 1024.28 1023.69 1022.97 1022.43 1021.74 1020.47 1019.96 1019.38 1018.81 1018.14 1017.38 1016.69 1016.12
1014.26 1014.78 1015.00 1015.46 1015.77 1016.16 1016.69 1016.75 1017.00 1017.23 1017.63 1018.32 1019.00 1019.57 1020.42 1020.98 1021.65 1022.55 1023.36 1024.04 1024.47 1025.03 1025.37 1025.63 1025.82 1025.93 1025.98 1025.93 1025.82 1025.79 1025.78 1025.58 1025.44 1025.31 1025.11 1024.80 1024.26 1023.55 1022.90 1022.25 1021.57 1020.75 1020.26 1019.54 1018.94 1018.29 1017.71 1016.72 1016.07
1013.77 1013.64 1014.29 1015.32 1016.19 1016.93 1017.01 1017.29 1016.69 1016.64 1017.03 1017.55 1018.03 1018.91 1019.69 1020.65 1021.40 1022.09 1023.10 1024.11 1024.74 1025.28 1025.55 1025.85 1026.12 1026.14 1026.28 1026.30 1026.26 1026.40 1026.31 1026.06 1025.98 1025.90 1025.70 1025.01 1024.23 1023.59 1022.82 1022.05 1021.36 1020.74 1020.23 1019.65 1019.01 1018.22 1017.66 1017.00 1016.03
1013.60 1013.42 1014.43 1015.49 1016.54 1017.15 1017.62 1018.11 1016.20 1016.29 1016.49 1016.52 1017.01 1017.87 1018.98 1020.04 1020.76 1021.76 1022.92 1023.98 1024.89 1025.46 1025.82 1026.14 1026.31 1026.50 1026.66 1026.72 1026.63 1026.59 1026.42 1026.22 1026.12 1026.00 1025.64 1024.96 1024.26 1023.61 1022.78 1021.90 1021.22 1020.66 1020.14 1019.58 1018.82 1018.03 1017.35 1016.84 1016.05
1014.39 1014.58 1015.27 1016.61 1017.50 1018.05 1017.65 1017.71 1016.08 1015.72 1015.10 1015.14 1015.85 1016.93 1018.49 1019.75 1020.85 1021.96 1023.14 1024.22 1025.21 1025.82 1026.11 1026.43 1026.60 1026.92 1027.05 1026.98 1026.91 1026.65 1026.52 1026.40 1026.44 1026.12 1025.67 1025.07 1024.41 1023.57 1022.71 1021.91 1021.26 1020.70 1020.00 1019.36 1018.56 1017.85 1017.10 1016.47 1015.94
1014.97 1015.73 1017.18 1018.31 1018.77 1018.57 1017.85 1017.67 1015.35 1014.51 1014.52 1014.63 1015.19 1016.79 1018.12 1019.45 1020.77 1022.02 1023.36 1024.53 1025.39 1025.91 1026.39 1026.65 1026.96 1027.25 1027.28 1027.22 1026.97 1026.84 1026.61 1026.60 1026.57 1026.26 1025.88 1025.35 1024.62 1023.59 1022.80 1022.24 1021.53 1020.76 1019.94 1019.24 1018.29 1017.51 1016.89 1016.34 1015.58
1015.79 1016.80 1018.06 1019.14 1019.78 1019.19 1018.20 1017.10 1014.82 1014.39 1014.52 1014.30 1014.82 1016.48 1018.06 1019.66 1020.95 1022.22 1023.39 1024.48 1025.29 1025.96 1026.47 1026.80 1027.22 1027.47 1027.47 1027.29 1027.18 1026.99 1026.84 1026.77 1026.59 1026.29 1025.96 1025.52 1024.79 1023.90 1023.14 1022.46 1021.75 1020.89 1019.98 1019.22 1018.16 1017.37 1016.79 1016.00 1015.20
1016.18 1017.42 1018.27 1019.32 1020.31 1020.61 1018.47 1016.47 1014.91 1014.91 1015.30 1015.85 1016.42 1017.43 1018.66 1019.97 1021.28 1022.42 1023.71 1024.56 1025.42 1026.06 1026.62 1027.01 1027.45 1027.65 1027.70 1027.50 1027.36 1027.17 1027.07 1026.97 1026.78 1026.46 1026.04 1025.52 1024.74 1023.82 1023.31 1022.69 1021.94 1021.09 1020.21 1019.04 1018.14 1017.31 1016.59 1015.75 1014.84
1016.02 1017.65 1018.91 1020.20 1021.62 1021.01 1019.07 1017.78 1016.49 1016.08 1016.64 1017.43 1018.08 1018.68 1019.60 1020.68 1021.80 1022.97 1023.98 1024.88 1025.62 1026.19 1026.71 1027.24 1027.54 1027.79 1027.83 1027.67 1027.54 1027.41 1027.31 1027.18 1026.90 1026.57 1026.20 1025.61 1024.90 1024.22 1023.66 1022.93 1022.13 1021.30 1020.34 1019.18 1018.21 1017.45 1016.62 1015.63 1014.51
1017.33 1018.19 1019.64 1021.08 1022.12 1021.71 1020.73 1018.43 1016.99 1016.75 1017.32 1018.05 1019.04 1019.79 1020.29 1021.14 1022.19 1023.28 1024.35 1025.16 1025.78 1026.34 1026.99 1027.55 1027.79 1028.00 1027.94 1027.83 1027.67 1027.54 1027.58 1027.37 1027.09 1026.86 1026.46 1025.93 1025.19 1024.66 1024.07 1023.41 1022.52 1021.62 1020.62 1019.52 1018.51 1017.63 1016.66 1015.64 1014.43
1017.07 1017.98 1019.21 1020.90 1022.09 1022.20 1021.60 1018.88 1016.93 1016.96 1017.22 1018.11 1019.35 1020.36 1021.14 1021.83 1022.68 1023.65 1024.62 1025.39 1026.02 1026.61 1027.26 1027.77 1028.15 1028.15 1027.98 1027.94 1027.81 1027.88 1027.85 1027.69 1027.44 1027.12 1026.70 1026.17 1025.63 1025.10 1024.56 1023.83 1022.92 1021.98 1021.01 1019.98 1018.89 1017.82 1016.83 1015.69 1014.39
Wind_Speed
8 6 3 3 5 6 2 5 2 4 2 2 3 3 4 5 2 3 2 6 5 4 2 2 8 9 12 11 12 13 14 15 16 17 18 18 18 20 19 19 20 19 18 18 18 18 18 19 20
6 2 4 3 6 3 5 2 5 4 6 8 6 3 7 4 4 7 5 5 6 4 1 3 8 8 12 11 11 13 13 14 14 16 18 19 19 20 19 20 20 19 19 18 17 17 17 18 19
8 1 4 6 4 3 3 1 4 4 10 3 5 6 4 3 3 7 5 8 5 3 4 5 10 10 12 11 11 12 12 13 12 14 16 18 18 19 20 19 19 19 19 19 18 17 17 19 20
5 4 5 6 1 2 2 4 7 8 2 6 5 7 4 3 8 7 8 7 6 4 5 7 10 8 11 11 10 10 12 12 11 12 14 17 17 19 20 19 19 19 18 18 19 18 18 20 20
4 3 4 3 3 2 1 5 7 5 5 3 2 4 3 4 7 11 8 7 7 4 5 5 9 9 10 10 9 9 11 11 10 11 13 15 16 18 19 19 18 18 20 19 17 18 19 20 20
5 4 3 2 3 1 3 5 6 3 3 5 6 5 2 3 9 6 6 6 6 6 5 6 9 9 9 8 9 8 12 11 9 10 12 13 16 16 19 19 19 19 19 19 18 18 18 19 19
7 5 2 1 2 1 5 6 6 5 4 2 7 5 2 3 4 7 6 6 6 5 6 5 5 7 10 9 8 8 12 10 9 10 11 13 15 16 19 20 20 20 20 19 18 17 17 17 17
6 6 3 2 4 5 6 4 4 4 3 8 6 6 7 8 8 7 6 6 6 4 4 4 4 3 5 5 8 10 11 8 10 11 12 12 13 15 18 19 20 21 21 19 19 18 18 17 17
3 5 2 5 7 3 6 6 3 2 6 2 1 6 6 13 11 7 5 3 3 2 3 3 4 3 4 4 6 9 10 10 11 10 12 9 5 6 9 18 21 22 21 20 19 18 18 18 16
6 4 7 3 5 6 5 5 7 5 3 3 3 6 11 15 10 9 7 6 4 3 1 1 3 3 4 3 5 5 5 4 4 4 5 4 5 7 11 15 20 19 18 19 18 17 17 14 6
2 3 2 4 2 6 7 4 3 11 3 6 11 10 10 11 7 7 6 6 7 4 2 1 2 3 4 4 3 3 3 3 3 6 5 5 4 4 5 4 5 5 12 5 8 8 5 7 6
4 3 1 2 4 6 6 7 5 1 3 10 9 12 8 10 9 9 8 7 7 6 4 1 2 4 5 3 3 3 3 2 3 4 5 4 3 5 5 4 5 5 4 7 6 5 7 8 8
4 2 5 5 7 6 7 5 6 1 4 10 10 9 10 9 7 4 6 6 7 6 5 2 2 4 3 5 3 4 3 3 4 4 4 4 4 4 4 5 4 4 5 5 6 6 8 10 11
3 6 4 5 3 4 6 3 2 1 5 9 10 9 8 10 10 5 7 8 7 7 6 4 3 3 4 4 4 3 3 4 4 3 4 6 4 4 4 6 6 6 4 5 6 7 7 8 9
3 5 4 1 0 2 7 1 4 7 7 9 8 8 7 7 9 12 12 9 9 6 7 5 5 3 5 5 4 4 4 4 4 3 5 6 6 5 5 6 6 6 6 9 7 8 8 8 7
5 5 2 2 5 1 3 7 4 8 11 9 8 7 7 7 9 7 8 7 7 7 7 5 5 5 5 5 4 4 4 3 3 4 4 7 7 7 6 6 6 6 7 7 7 8 8 7 7
5 4 4 5 8 6 4 5 1 5 8 9 8 7 7 6 5 5 6 7 8 7 7 6 5 4 5 5 4 4 4 4 4 4 4 6 7 8 6 6 6 7 7 8 7 7 8 10 8
3 4 4 5 5 4 4 8 2 6 7 10 9 8 7 8 8 6 7 6 7 6 6 6 4 3 4 3 3 3 3 2 4 4 4 6 6 8 7 6 7 8 8 9 7 10 9 9 9
1 3 3 3 4 5 8 4 8 10 4 8 8 8 8 8 5 6 6 6 7 5 7 5 5 2 3 3 2 2 2 2 3 4 7 8 8 8 7 6 7 9 9 11 10 9 10 8 10
2 4 5 2 1 4 2 10 7 10 15 16 12 9 9 6 7 7 7 6 4 7 6 5 5 5 3 2 1 1 1 1 1 3 6 7 7 7 8 7 7 10 8 11 10 11 8 8 8
5 5 5 4 2 1 4 7 3 6 5 7 8 6 6 11 11 9 8 7 6 7 7 6 5 4 4 4 3 3 2 2 3 4 4 7 8 9 8 8 7 8 7 7 10 8 11 9 7
8 9 7 5 4 3 2 7 6 3 9 9 11 9 9 9 8 10 9 7 7 6 6 6 5 5 4 4 4 3 0 3 2 2 4 6 7 8 9 8 8 7 6 10 8 9 8 9 8
9 5 7 4 5 3 1 2 8 1 4 11 13 13 10 12 14 13 11 8 7 7 7 6 6 6 4 4 4 2 3 1 2 3 6 6 6 7 9 9 8 8 7 9 10 10 9 7 8
3 5 8 5 3 3 4 5 7 4 6 2 7 13 11 11 10 10 9 10 7 6 6 5 6 4 4 4 4 5 5 5 5 5 5 6 6 6 9 11 8 8 8 10 10 10 10 9 8
8 6 4 5 5 5 1 1 10 6 4 5 10 10 13 14 14 14 13 10 8 7 6 5 5 3 3 4 5 5 6 5 6 6 4 7 7 7 10 10 10 9 10 10 11 11 9 10 10
3 1 4 5 0 4 2 5 5 3 7 5 4 14 16 14 12 14 13 11 9 8 7 6 5 3 3 4 5 5 5 3 4 4 4 5 5 6 9 10 10 12 12 12 10 8 8 10 9
2 4 1 3 3 3 4 5 5 6 10 10 10 13 14 13 14 14 11 10 8 7 7 7 5 4 3 4 4 5 5 6 5 6 5 4 6 8 10 10 11 12 13 14 13 9 10 11 10
4 5 2 3 1 3 5 3 5 8 7 4 5 9 11 12 14 12 10 9 6 6 6 6 5 4 2 3 3 4 5 5 5 5 6 7 8 10 10 11 11 13 13 15 13 11 11 12 10
1 2 6 6 3 4 1 6 4 4 5 5 4 5 10 14 13 12 9 7 7 6 6 6 5 4 3 3 3 6 5 5 5 5 6 7 9 10 11 11 12 13 14 14 13 13 14 14 13
1 4 5 3 3 3 3 9 3 4 4 7 7 7 7 10 11 11 10 9 7 6 6 6 4 4 3 2 5 5 5 6 6 6 7 7 9 10 10 11 12 13 14 14 14 16 15 15 16
Wind_Direction
118 124 97 32 56 66 199 240 118 152 181 33 63 76 114 41 57 158 321 134 118 163 146 7 70 48 52 46 44 41 38 37 35 33 31 27 26 27 18 14 11 7 8 6 6 9 9 6 4
132 125 38 62 86 79 262 215 209 167 119 123 89 65 44 69 79 115 107 176 173 174 79 358 64 52 43 46 43 43 38 33 32 29 31 29 26 24 19 13 8 7 3 2 2 2 6 5 1
144 72 72 85 86 166 231 218 102 74 133 92 89 53 83 86 72 148 155 163 162 94 44 46 51 37 41 42 38 42 35 29 31 29 28 25 25 24 17 12 9 6 3 357 355 358 0 356 351
148 24 38 76 265 257 212 160 130 115 109 62 106 65 56 333 147 153 144 140 125 83 46 68 55 55 43 39 32 40 28 21 30 29 27 20 24 19 16 12 8 4 359 2 0 356 347 343 342
41 59 62 74 267 269 313 133 126 119 112 88 120 133 52 13 109 129 141 147 130 96 41 43 66 55 45 38 33 42 24 24 25 31 26 20 21 15 13 9 6 4 1 351 344 343 337 335 333
47 100 53 266 239 59 78 137 119 89 97 154 85 99 102 108 127 155 142 154 128 112 65 39 57 71 50 41 43 42 20 26 23 33 25 21 17 14 10 6 1 359 351 345 346 336 332 331 330
114 87 232 179 208 174 160 141 136 117 108 96 139 88 96 204 179 146 147 126 111 105 82 50 30 50 44 51 41 34 21 19 39 41 27 25 17 17 9 5 358 357 350 345 340 339 338 332 331
105 91 121 221 188 228 153 97 92 103 113 147 136 152 183 205 151 124 115 109 109 101 83 48 32 36 44 30 35 38 27 33 51 37 32 32 23 17 8 4 357 352 347 345 339 337 334 334 333
115 67 202 216 159 185 169 119 66 47 113 83 87 152 167 124 124 121 116 102 110 108 72 43 18 20 25 44 26 34 27 56 52 36 35 35 6 340 11 0 355 351 346 347 340 340 335 335 333
79 111 221 175 175 169 144 110 133 106 132 44 73 52 109 130 149 149 159 162 165 165 121 32 8 15 28 34 43 35 48 70 53 44 39 22 10 356 9 360 355 349 339 340 336 335 333 331 312
101 154 170 348 184 131 130 93 95 123 213 202 162 143 132 140 147 154 169 171 182 161 152 198 352 31 45 47 49 38 54 59 39 49 40 18 1 350 353 345 331 318 326 317 318 312 301 306 303
82 45 26 119 113 95 118 120 95 239 223 155 156 142 135 153 163 175 176 176 169 157 174 169 18 55 60 67 53 53 63 47 52 46 33 18 357 351 342 328 314 306 298 302 300 299 303 306 304
85 115 54 68 96 86 106 109 146 181 119 120 128 133 153 167 169 158 168 169 154 158 172 180 89 78 81 71 62 54 51 58 69 46 15 10 358 345 320 314 305 293 295 291 298 310 324 325 323
51 78 86 25 75 80 105 131 89 290 128 126 139 156 169 173 174 135 170 174 168 154 172 158 108 108 96 83 70 60 63 74 59 35 7 359 347 329 322 318 309 299 299 300 305 321 322 321 322
87 73 52 66 71 118 128 285 228 161 147 150 161 150 158 172 164 178 180 172 163 168 158 151 126 107 84 78 69 56 50 73 56 25 3 350 345 323 318 311 310 300 309 320 327 326 329 322 296
67 59 115 245 149 182 69 267 196 161 151 174 178 165 168 177 186 195 171 156 155 146 157 159 104 97 82 73 63 60 68 65 48 21 357 348 333 324 325 317 305 311 324 330 333 335 320 312 310
2 231 201 306 196 153 165 255 144 157 161 180 191 190 186 169 182 204 178 153 155 156 142 113 107 100 96 71 66 61 72 59 33 9 352 329 331 330 329 309 303 315 333 334 334 325 319 324 312
245 246 241 231 220 152 175 246 163 183 176 189 193 197 196 191 192 184 151 134 138 140 119 108 115 105 88 61 52 63 57 38 19 355 350 339 332 332 318 307 316 336 338 339 335 326 326 323 312
139 215 260 228 228 151 217 262 199 195 192 208 208 199 204 202 177 142 123 133 127 119 114 122 123 51 56 18 359 27 15 338 360 3 343 336 332 319 309 325 328 341 345 341 338 323 326 323 331
268 330 287 258 71 179 161 257 204 189 212 206 192 206 198 156 163 138 132 149 147 134 119 109 96 69 45 26 1 65 293 9 354 345 331 337 316 318 330 327 333 345 347 343 335 329 330 319 328
235 207 228 250 83 279 5 298 212 234 225 181 203 197 170 178 168 153 154 163 136 133 133 125 106 91 58 35 25 19 5 5 360 344 345 334 330 331 330 329 326 333 341 335 333 323 325 318 317
263 203 210 156 125 231 136 277 295 216 226 207 204 192 183 165 167 157 152 151 142 139 123 116 112 83 57 33 57 55 63 27 329 317 303 305 317 323 328 330 331 329 332 340 328 318 306 321 318
247 150 142 129 109 84 300 36 269 41 245 226 208 202 176 174 169 161 155 135 126 132 130 117 97 72 46 48 65 59 46 19 323 316 312 315 323 322 330 339 336 334 330 332 323 320 323 311 305
335 56 50 55 70 27 247 138 283 233 230 293 196 198 157 157 149 136 113 118 118 120 112 111 97 65 41 56 49 56 44 6 344 325 329 334 330 328 339 339 335 327 327 332 329 319 313 324 317
25 39 4 359 11 225 44 83 245 267 249 228 200 166 152 148 148 137 131 132 136 131 129 118 110 85 44 53 47 36 37 5 326 319 319 332 334 339 342 335 335 329 325 330 325 324 334 325 314
114 5 140 200 201 287 109 239 260 5 349 300 184 142 139 148 143 136 138 141 139 137 139 126 125 96 57 51 37 34 29 1 339 331 321 318 323 325 333 332 333 334 334 336 330 326 332 323 313
3 48 354 64 53 27 247 302 338 350 29 38 101 129 141 139 135 134 131 138 134 136 147 146 130 95 70 57 38 30 21 13 358 350 344 324 330 341 342 336 338 337 335 340 344 335 328 325 320
136 128 47 41 312 288 300 290 260 342 351 52 100 129 129 125 128 126 132 132 122 134 137 126 120 106 95 66 36 35 23 15 8 3 355 356 348 350 344 344 343 338 341 350 349 339 334 331 327
25 60 52 101 143 159 315 277 210 264 307 179 136 137 138 136 135 132 128 118 126 129 130 126 112 115 87 62 43 38 18 13 17 9 357 357 354 352 351 345 343 344 346 349 348 341 343 339 337
91 175 145 123 226 108 108 274 175 268 274 152 142 127 118 129 130 129 127 130 143 139 132 131 128 127 110 65 54 37 27 16 17 4 3 2 359 355 352 348 349 349 351 351 351 346 344 344 346